[[{"header":{"parameterUnit":"m.s-1","parameterCategory":1,"la1":30.2991,"la2":30.254,"lo1":-89.0895,"lo2":-89.0444,"dy":0.0017,"dx":0.0017,"nx":28,"ny":28,"refTime":"2024-05-16T21:00:00:Z","depth":0,"parameterNumber":2,"parameterNumberName":"U-component_of_WINDS"},"data":[0,0,0,0,0,0,0,0,0,0,0,0,0,0,0,0,0,0,0,0,0,0,0,0,0,0,0,0,0,0,0,0,0,0,0,0,0,0,0,0,0,0,0,0,0,0,0,0,0,0,0,0,0,0,0,0,0,0,-2.8373,-2.8373,0,-2.8386,-2.8386,-2.8387,-2.8329,-2.8327,-2.8325,-2.8324,-2.8339,-2.8341,-2.8343,0,0,0,0,0,0,0,0,0,0,0,0,0,-2.8299,-2.8301,-2.8373,-2.8373,-2.8373,-2.8386,-2.8386,-2.8387,-2.8329,-2.8327,-2.8325,-2.8323,-2.8339,-2.8341,-2.8344,0,0,0,0,0,0,0,0,0,0,0,0,0,-2.8324,-2.8301,-2.8373,-2.8346,-2.8344,-2.8386,-2.8386,-2.8387,-2.8329,-2.8327,-2.8324,-2.8322,-2.8338,-2.8341,-2.8344,-2.8414,0,0,-2.8353,-2.8354,0,0,0,0,0,0,0,0,-2.8323,-2.8327,-2.835,-2.8348,-2.8345,-2.8353,-2.8366,-2.8396,-2.833,-2.8335,-2.8323,-2.8321,-2.8346,-2.8348,-2.8357,-2.8415,-2.8415,-2.8353,-2.8355,-2.8357,-2.8357,0,0,0,0,0,0,0,-2.8321,-2.8326,-2.8378,-2.835,-2.8347,-2.8334,-2.8334,-2.8372,-2.8355,-2.8334,-2.833,-2.8332,-2.8344,-2.8354,-2.8357,-2.8415,-2.8353,-2.8356,-2.8358,-2.8359,-2.8532,-2.8534,0,0,0,0,0,0,-2.8323,-2.8325,-2.8378,-2.8379,-2.8327,-2.8337,-2.8338,-2.8353,-2.8354,-2.8352,-2.8334,-2.8329,-2.835,-2.8353,-2.8357,-2.8439,-2.8356,-2.8359,-2.8361,-2.8529,-2.8532,-2.8535,0,0,0,0,0,0,-2.8321,-2.8328,-2.8377,-2.8351,-2.8356,-2.8341,-2.8359,-2.8355,-2.8364,-2.8354,-2.8351,-2.8347,-2.8348,-2.8353,-2.84,-2.8439,-2.8361,-2.8363,-2.8526,-2.853,-2.8534,-2.8603,0,0,0,0,0,0,-2.8319,-2.8328,-2.8354,-2.8352,-2.8357,-2.842,-2.8361,-2.8357,-2.8369,-2.8363,-2.8365,-2.8363,-2.8346,-2.8396,-2.8403,-2.8441,-2.8366,-2.8522,-2.8528,-2.8532,-2.8598,-2.8609,-2.8619,0,0,0,0,0,-2.8317,-2.8373,-2.8355,-2.8362,-2.8389,-2.8422,-2.8425,-2.8404,-2.8372,-2.8399,-2.8393,-2.8363,-2.8433,-2.8401,-2.8409,-2.8449,-2.852,-2.8526,-2.8532,-2.8593,-2.8607,-2.8619,0,0,0,0,0,0,-2.8381,-2.8372,-2.8352,-2.8409,-2.8417,-2.8412,-2.8445,-2.842,-2.8437,-2.8431,-2.8405,-2.8406,-2.8458,-2.8458,-2.8422,-2.8516,-2.8471,-2.8479,-2.8514,-2.8528,-2.8539,-2.8538,-2.8368,0,0,0,0,0,-2.8402,-2.8428,-2.8419,-2.8471,-2.8475,-2.846,-2.8473,-2.8456,-2.8463,-2.8466,-2.8463,-2.8472,-2.8495,-2.8512,-2.8533,-2.8597,-2.8597,-2.8628,-2.8639,-2.8648,-2.8656,-2.869,-2.8704,-2.8556,-2.8556,-2.8556,0,0,-2.8445,-2.8443,-2.8462,-2.8484,-2.8487,-2.8516,-2.8463,-2.8495,-2.8516,-2.8471,-2.8515,-2.8514,-2.8521,-2.8578,-2.8602,-2.8579,-2.8697,-2.8656,-2.8664,-2.8666,-2.8698,-2.8712,-2.8724,-2.856,-2.8559,-2.8559,0,0,-2.8538,-2.854,-2.8582,-2.8587,-2.8593,-2.8582,-2.8592,-2.8591,-2.8588,-2.8632,-2.8599,-2.8624,-2.8666,-2.8673,-2.8682,-2.8778,-2.8751,-2.8785,-2.8843,-2.8876,-2.8888,-2.8898,-2.8933,-2.8946,-2.8793,-2.8793,-2.8793,0,-2.8591,-2.8632,-2.8608,-2.8642,-2.8653,-2.8613,-2.8656,-2.8662,-2.8675,-2.8684,-2.8658,-2.8709,-2.8712,-2.8769,-2.8792,-2.8801,-2.8812,-2.8785,-2.8888,-2.8898,-2.8908,-2.894,-2.8953,-2.8797,-2.8796,-2.8796,-2.8796,0,-2.8698,-2.8727,-2.8761,-2.8773,-2.8788,-2.8827,-2.8809,-2.8827,-2.8809,-2.8801,-2.8847,-2.8848,-2.8869,-2.8881,-2.8864,-2.8936,-2.8922,-2.8893,-2.8846,-2.8926,-2.8956,-2.8969,-2.8803,-2.8801,-2.88,-2.8799,0,0,-2.8832,-2.883,-2.8843,-2.8849,-2.8852,-2.8874,-2.8912,-2.8932,-2.8948,-2.8958,-2.8989,-2.9025,-2.8998,-2.9009,-2.8992,-2.9021,-2.9098,-2.8988,-2.8988,-2.9009,-2.9178,-2.92,-2.9215,-2.908,-2.9082,-2.9084,-2.9177,0,-2.8924,-2.8987,-2.8966,-2.903,-2.9057,-2.9019,-2.9051,-2.9058,-2.9051,-2.9074,-2.9067,-2.9093,-2.9055,-2.9061,-2.9088,-2.9083,-2.9131,-2.9076,-2.911,-2.9111,-2.9109,-2.9231,-2.9254,-2.9342,-2.9189,-2.9191,-2.9192,0,-2.9039,-2.9053,-2.912,-2.9119,-2.913,-2.9159,-2.9176,-2.9197,-2.9204,-2.9197,-2.9208,-2.9186,-2.9223,-2.9177,-2.9228,-2.9191,-2.9203,-2.9203,-2.9206,-2.9208,-2.9157,-2.9237,-2.9369,-2.9383,-2.9211,-2.9209,-2.9208,0,-2.9131,-2.9167,-2.9211,-2.9217,-2.9217,-2.9239,-2.924,-2.9243,-2.9257,-2.9271,-2.928,-2.9299,-2.931,-2.9325,-2.9309,-2.9276,-2.9363,-2.9315,-2.9359,-2.9359,-2.9379,-2.9378,-2.9516,-2.9387,-2.9387,-2.9386,-2.9386,0,-2.9236,-2.9279,-2.9253,-2.928,-2.9327,-2.9302,-2.935,-2.9346,-2.935,-2.9377,-2.9345,-2.9371,-2.9347,-2.9371,-2.9358,-2.9403,-2.9408,-2.9404,-2.94,-2.9407,-2.9408,-2.9416,-2.9409,-2.939,-2.9389,-2.9388,-2.9388,0,-2.9347,-2.9331,-2.9377,-2.9373,-2.9373,-2.9407,-2.9404,-2.943,-2.9421,-2.9455,-2.9462,-2.9448,-2.9475,-2.9459,-2.9487,-2.9478,-2.9537,-2.9524,-2.9534,-2.9531,-2.9576,-2.9572,-2.9724,-2.9743,-2.9601,-2.9603,-2.9604,0,-2.9415,-2.9447,-2.9446,-2.9461,-2.9464,-2.9489,-2.9502,-2.9479,-2.9494,-2.9503,-2.9528,-2.9552,-2.9569,-2.9614,-2.9607,-2.9628,-2.9616,-2.9668,-2.9619,-2.9625,-2.9618,-2.9616,-2.9619,-2.9678,-2.968,-2.9681,-2.9682,0,-2.9539,-2.9529,-2.9548,-2.9565,-2.9582,-2.9594,-2.9604,-2.9619,-2.9596,-2.9614,-2.9641,-2.9654,-2.9682,-2.9706,-2.9724,-2.9726,-2.9701,-2.9697,-2.9709,-2.9716,-2.9721,-2.972,-2.9561,-2.9694,-2.9693,-2.9692,-2.9691,-2.9691,-2.9631,-2.9657,-2.966,-2.9683,-2.9687,-2.9697,-2.9721,-2.9715,-2.9736,-2.9756,-2.9741,-2.9773,-2.9779,-2.98,-2.9805,-2.9829,-2.9809,-2.9825,-2.9829,-2.9834,-2.984,-2.9717,-2.9832,-2.9832,-2.9832,-2.9831,-2.9831,0,-2.9753,-2.9752,-2.9773,-2.9788,-2.9806,-2.9779,-2.9789,-2.9806,-2.9834,-2.9841,-2.9858,-2.9889,-2.9912,-2.9907,-2.9928,-2.9949,-2.9938,-2.9955,-2.9954,-2.9955,-2.9857,-2.9845,-2.9964,-2.9964,-2.9964,-2.9964,-2.9964,-2.9964,-2.9818,-2.9861,-2.9852,-2.9898,-2.9897,-2.9927,-2.9935,-2.9944,-2.9949,-2.9984,-3.0003,-2.9999,-3.0001,-3.0022,-3.0042,-3.004,-3.005,-3.0071,-3.0065,-2.9975,-2.9961,-2.9949,-2.9938,-3.0073,-3.0074,-3.0161,-3.0161,-3.0162]},{"header":{"parameterUnit":"m.s-1","parameterCategory":1,"la1":30.2991,"la2":30.254,"lo1":-89.0895,"lo2":-89.0444,"dy":0.0017,"dx":0.0017,"nx":28,"ny":28,"refTime":"2024-05-16T21:00:00:Z","depth":0,"parameterNumber":3,"parameterNumberName":"V-component_of_WINDS"},"data":[0,0,0,0,0,0,0,0,0,0,0,0,0,0,0,0,0,0,0,0,0,0,0,0,0,0,0,0,0,0,0,0,0,0,0,0,0,0,0,0,0,0,0,0,0,0,0,0,0,0,0,0,0,0,0,0,0,0,3.0929,3.0929,0,3.0922,3.0921,3.0921,3.0907,3.0906,3.0906,3.0906,3.0898,3.0898,3.0898,0,0,0,0,0,0,0,0,0,0,0,0,0,3.093,3.093,3.0929,3.0929,3.0929,3.0922,3.0921,3.0921,3.0907,3.0906,3.0906,3.0906,3.0898,3.0898,3.0898,0,0,0,0,0,0,0,0,0,0,0,0,0,3.0927,3.093,3.0929,3.0921,3.092,3.0922,3.0921,3.0921,3.0907,3.0906,3.0906,3.0905,3.0897,3.0898,3.0898,3.0907,0,0,3.0898,3.0898,0,0,0,0,0,0,0,0,3.0927,3.0927,3.0922,3.0921,3.092,3.0915,3.0919,3.0916,3.0907,3.0912,3.0906,3.0905,3.0904,3.0903,3.0903,3.0906,3.0906,3.0898,3.0898,3.0898,3.0898,0,0,0,0,0,0,0,3.0927,3.0927,3.0926,3.0922,3.0921,3.0917,3.0916,3.0918,3.091,3.0911,3.091,3.0909,3.0903,3.0903,3.0902,3.0906,3.0898,3.0898,3.0898,3.0898,3.0918,3.0918,0,0,0,0,0,0,3.0929,3.0928,3.0926,3.0926,3.0923,3.0918,3.0916,3.0917,3.091,3.0909,3.091,3.0909,3.0903,3.0902,3.0902,3.0913,3.0898,3.0898,3.0898,3.0917,3.0918,3.0918,0,0,0,0,0,0,3.0929,3.0929,3.0927,3.0926,3.0926,3.0918,3.0919,3.0917,3.0917,3.0909,3.0907,3.0911,3.0902,3.0902,3.0906,3.0912,3.0898,3.0898,3.0917,3.0917,3.0918,3.0934,0,0,0,0,0,0,3.0929,3.0929,3.0933,3.0927,3.0926,3.0931,3.0919,3.0917,3.0917,3.0915,3.091,3.0908,3.0902,3.0906,3.0906,3.0912,3.0898,3.0916,3.0917,3.0918,3.0933,3.0936,3.0938,0,0,0,0,0,3.0929,3.0937,3.0933,3.0933,3.093,3.0931,3.0931,3.0923,3.0917,3.0921,3.0916,3.0908,3.0912,3.0906,3.0906,3.0913,3.0916,3.0917,3.0918,3.0932,3.0935,3.0938,0,0,0,0,0,0,3.0944,3.0936,3.0931,3.0938,3.0935,3.0929,3.0933,3.0927,3.0926,3.0924,3.0915,3.0914,3.0919,3.0916,3.0911,3.0922,3.0912,3.0914,3.0924,3.0926,3.0928,3.0929,3.0898,0,0,0,0,0,3.0948,3.095,3.0943,3.0949,3.0948,3.0941,3.0941,3.0936,3.0933,3.0931,3.0927,3.0924,3.0925,3.0925,3.0925,3.0933,3.0932,3.0937,3.0939,3.0941,3.0942,3.0947,3.0949,3.0922,3.0922,3.0922,0,0,3.0956,3.0952,3.0954,3.0952,3.0949,3.0951,3.094,3.0942,3.0944,3.0932,3.0936,3.0932,3.0929,3.0935,3.0937,3.0932,3.095,3.0942,3.0944,3.0944,3.0948,3.0951,3.0953,3.0923,3.0922,3.0922,0,0,3.0972,3.0969,3.0975,3.0972,3.0969,3.0964,3.0965,3.096,3.0957,3.0961,3.0952,3.0954,3.0954,3.0952,3.0951,3.0967,3.0961,3.0968,3.0979,3.0983,3.0986,3.0987,3.0994,3.0996,3.0969,3.0969,3.0969,0,3.0983,3.0986,3.0978,3.0981,3.0981,3.097,3.0975,3.0974,3.097,3.097,3.0965,3.0966,3.0963,3.0969,3.0973,3.0972,3.0973,3.0968,3.0986,3.0988,3.0989,3.0995,3.0997,3.097,3.097,3.0969,3.0969,0,3.0999,3.1002,3.1006,3.1004,3.1004,3.1008,3.1001,3.1001,3.0996,3.0992,3.0996,3.0992,3.0991,3.0992,3.0986,3.0997,3.0994,3.0988,3.0978,3.0993,3.0998,3.1,3.0971,3.0971,3.097,3.097,0,0,3.1025,3.1018,3.102,3.1019,3.1014,3.1016,3.102,3.1019,3.102,3.1018,3.1022,3.1023,3.1017,3.1016,3.101,3.1014,3.1027,3.1006,3.1006,3.1011,3.1039,3.1045,3.1048,3.1023,3.1023,3.1023,3.104,0,3.104,3.1047,3.104,3.1048,3.105,3.104,3.1043,3.1041,3.1037,3.1038,3.1034,3.1035,3.1027,3.1026,3.1029,3.1025,3.1033,3.1024,3.1026,3.1026,3.1028,3.105,3.1056,3.1072,3.1042,3.1042,3.1042,0,3.106,3.1059,3.1067,3.1063,3.1063,3.1066,3.1066,3.1067,3.1064,3.1061,3.106,3.1053,3.1057,3.1048,3.1053,3.1046,3.1047,3.1045,3.1045,3.1046,3.1036,3.1052,3.1077,3.1079,3.1046,3.1045,3.1045,0,3.1078,3.1079,3.1084,3.1084,3.1078,3.1081,3.1079,3.1076,3.1076,3.1075,3.1075,3.1075,3.1075,3.1074,3.1068,3.1062,3.1074,3.1064,3.1072,3.1072,3.1075,3.1075,3.1101,3.1075,3.1075,3.1075,3.1074,0,3.1097,3.1102,3.1093,3.1096,3.1102,3.1094,3.11,3.1097,3.1094,3.1097,3.1088,3.109,3.1081,3.1083,3.1078,3.1083,3.1083,3.1081,3.1079,3.1082,3.1082,3.1082,3.1081,3.1075,3.1075,3.1075,3.1075,0,3.1119,3.1112,3.1118,3.1112,3.1111,3.1116,3.1111,3.1114,3.1109,3.1113,3.1113,3.1106,3.1108,3.1101,3.1101,3.1098,3.1106,3.1102,3.1107,3.1106,3.1115,3.1114,3.1142,3.1146,3.1116,3.1117,3.1117,0,3.1131,3.1135,3.113,3.1132,3.113,3.1132,3.1132,3.1124,3.1125,3.1123,3.1126,3.1127,3.1127,3.113,3.1125,3.1125,3.1122,3.1132,3.1122,3.1124,3.1123,3.1123,3.1123,3.1134,3.1134,3.1134,3.1135,0,3.1154,3.1151,3.1152,3.1152,3.1153,3.1152,3.1151,3.1153,3.1144,3.1146,3.1147,3.1147,3.1148,3.1149,3.1148,3.1146,3.1139,3.1138,3.114,3.1143,3.1145,3.1145,3.1113,3.1137,3.1137,3.1137,3.1137,3.1137,3.1172,3.1176,3.1173,3.1174,3.1173,3.1172,3.1175,3.1171,3.1172,3.1172,3.1167,3.117,3.1167,3.1166,3.1164,3.1166,3.1161,3.1164,3.1165,3.1166,3.1168,3.1145,3.1166,3.1166,3.1166,3.1166,3.1166,0,3.1196,3.1193,3.1195,3.1194,3.1195,3.1188,3.1187,3.1188,3.1191,3.1189,3.119,3.1192,3.1193,3.1188,3.1188,3.1191,3.1188,3.1191,3.1191,3.1191,3.1171,3.117,3.1194,3.1194,3.1194,3.1194,3.1194,3.1194,3.1208,3.1214,3.121,3.1215,3.1213,3.1215,3.1215,3.1214,3.1213,3.1216,3.1217,3.1214,3.1211,3.1211,3.1212,3.121,3.1211,3.1216,3.1213,3.1195,3.1192,3.119,3.1188,3.1216,3.1216,3.1233,3.1233,3.1233]}]]